Harare Kutsaga, Zimbabwe

12:35 AM CAT on September 29, 2016 (GMT +0200)
Harare International

Weather History for FVHA - December, 2012

Change the Weather History Date:

Sunday, December 9, 2012

  Actual Average Record
Temperature  
Mean Temperature 72 °F -  
Max Temperature 80 °F 76 °F 89 °F (2006)
Min Temperature 63 °F 61 °F 55 °F (2013)
Cooling Degree Days 6    
Growing Degree Days 22 (Base 50)    
Moisture  
Dew Point 64 °F    
Average Humidity 80    
Maximum Humidity 100    
Minimum Humidity 50    
Precipitation  
Precipitation 0.00 in - - ()
Sea Level Pressure  
Sea Level Pressure 30.08 in    
Wind  
Wind Speed 6 mph ()    
Max Wind Speed 12 mph    
Max Gust Speed -    
Visibility 7.8 miles    
Events Rain    
Averages and records for this station are not official NWS values.
T = Trace of Precipitation, MM = Missing Value Source: Averaged Metar Reports

Daily Weather History Graph

Daily Weather History Graph

Search for Another Location

Airport or City:

Trip Planner

Search our weather history database for the weather conditions in past years. The results will help you decide how hot, cold, wet, or windy it might be!

Date:

Astronomy

Dec. 09, 2012 Rise Set
Actual Time 5:12 AM CAT 6:23 PM CAT
Civil Twilight 4:48 AM CAT 6:47 PM CAT
Nautical Twilight 4:20 AM CAT 7:15 PM CAT
Astronomical Twilight 3:50 AM CAT 7:45 PM CAT
Moon 1:27 AM CAT (12/9) 2:22 PM CAT (12/9)
Length of Visible Light 13h 58m
Length of Day
13h 10m
Waning Crescent, 21% of the Moon is Illuminated
Dec 9
Waning Crescent
Dec 13
New
Dec 20
First Quarter
Dec 28
Full
Jan 5
Last Quarter

Hourly Weather History & Observations

Time (CAT) Temp. Heat Index Dew Point Humidity Pressure Visibility Wind Dir Wind Speed Gust Speed Precip Events Conditions
12:00 AM 64.4 °F - 64.4 °F 100% 30.12 in 6.2 mi East 4.6 mph - N/A Rain Light Rain
1:00 AM 64.4 °F - 64.4 °F 100% 30.09 in 6.2 mi East 4.6 mph - N/A   Mostly Cloudy
2:00 AM 66.2 °F - 64.4 °F 94% 30.09 in 6.2 mi East 1.2 mph - N/A   Mostly Cloudy
5:00 AM 64.4 °F - 64.4 °F 100% 30.12 in 6.2 mi South 4.6 mph - N/A   Mostly Cloudy
7:00 AM 68.0 °F - 66.2 °F 94% 30.12 in 6.2 mi East 6.9 mph - N/A   Mostly Cloudy
8:00 AM 71 °F - 65 °F 77%  in 19 mi East 9.2 mph - -   Scattered Clouds
8:00 AM 71.6 °F - 66.2 °F 83% 30.15 in 6.2 mi East 9.2 mph - N/A   Mostly Cloudy
9:00 AM 73.4 °F - 66.2 °F 78% 30.15 in 6.2 mi ENE 8.1 mph - N/A   Mostly Cloudy
10:00 AM 75.2 °F - 64.4 °F 69% 30.15 in 6.2 mi NE 8.1 mph - N/A   Scattered Clouds
11:00 AM 77.0 °F - 62.6 °F 61% 30.12 in 6.2 mi NE 4.6 mph - N/A   Mostly Cloudy
12:00 PM 77.0 °F - 64.4 °F 65% 30.09 in 6.2 mi South 9.2 mph - N/A   Mostly Cloudy
1:00 PM 80.6 °F 81.8 °F 62.6 °F 54% 30.06 in 6.2 mi SE 9.2 mph - N/A   Scattered Clouds
2:00 PM 77 °F - 62 °F 50%  in 19 mi SSE 6.9 mph - -   Mostly Cloudy
2:00 PM 77.0 °F - 62.6 °F 61% 30.04 in 6.2 mi SSE 6.9 mph - N/A   Mostly Cloudy
3:00 PM 75.2 °F - 62.6 °F 65% 30.01 in 6.2 mi ENE 3.5 mph - N/A   Mostly Cloudy
4:00 PM 69.8 °F - 59.0 °F 68% 30.01 in 6.2 mi East 10.4 mph - N/A Rain Light Rain
5:00 PM 71.6 °F - 64.4 °F 78% 30.01 in 6.2 mi ENE 11.5 mph - N/A   Mostly Cloudy
6:00 PM 69.8 °F - 64.4 °F 83% 30.01 in 6.2 mi East 5.8 mph - N/A   Mostly Cloudy
7:00 PM 66.2 °F - 62.6 °F 88% 30.06 in 6.2 mi ENE 6.9 mph - N/A   Mostly Cloudy
8:00 PM 66 °F - 63 °F 87%  in 19 mi East 9.2 mph - -   Partly Cloudy
8:00 PM 66.2 °F - 62.6 °F 88% 30.06 in 6.2 mi East 9.2 mph - N/A   Mostly Cloudy
9:00 PM 66.2 °F - 64.4 °F 94% 30.09 in 6.2 mi East 8.1 mph - N/A   Mostly Cloudy
10:00 PM 64.4 °F - 64.4 °F 100% 30.09 in 6.2 mi East 6.9 mph - N/A   Mostly Cloudy
11:00 PM 64.4 °F - 62.6 °F 94% 30.09 in 6.2 mi East 8.1 mph - N/A   Mostly Cloudy